Wind_Speed
15 14 13 13 14 15 15 15 14 12 12 14 15 16 17 19 21 23 24 25 26 27 29 29 29 30 30 31 31 30 31 31 31 31 32 32 29 28 28 27 27 27 25 26
15 14 14 15 14 15 15 15 13 13 14 16 17 19 21 23 24 25 25 26 27 28 28 29 30 30 30 31 31 31 32 32 32 32 32 32 30 29 28 29 27 26 25 23
16 16 16 15 14 14 14 13 14 15 17 18 21 23 24 25 25 25 25 25 28 29 29 29 29 30 31 31 31 32 32 33 31 30 30 31 32 31 30 28 27 25 25 24
18 17 16 15 14 13 13 12 14 15 17 19 21 24 24 26 25 26 26 26 27 27 28 29 29 29 30 31 31 31 31 32 31 30 30 30 30 31 30 27 27 26 23 21
18 17 16 14 14 13 13 13 14 15 17 18 20 23 22 23 24 25 26 26 26 27 29 29 29 30 30 31 30 30 31 31 31 30 30 31 30 29 30 29 28 27 25 22
16 16 15 13 13 13 13 14 15 16 17 19 19 21 21 22 23 25 26 26 27 28 29 30 30 30 28 29 29 30 29 29 30 31 30 30 31 29 28 28 29 28 26 24
15 14 12 11 12 13 13 14 15 15 15 17 18 20 20 21 22 23 23 24 26 26 26 27 29 29 27 27 28 28 28 28 28 28 28 29 29 29 29 28 27 26 24 23
14 13 11 10 9 11 11 13 14 16 16 17 18 19 19 20 19 20 21 23 24 24 25 25 25 25 24 25 25 25 26 26 25 25 27 28 27 26 26 27 26 24 22 21
14 13 12 11 11 12 13 14 15 16 17 17 17 18 18 19 20 20 20 20 22 22 23 22 21 21 20 21 22 22 24 24 24 24 25 26 25 25 24 26 26 24 22 20
14 13 12 12 13 14 15 16 16 17 18 18 17 17 18 19 19 19 19 19 19 20 20 19 19 19 19 20 21 21 22 22 23 23 23 23 23 23 22 23 24 24 22 21
13 12 12 13 14 15 16 16 17 17 18 18 18 18 18 19 19 20 19 18 18 17 17 17 18 19 19 19 21 20 19 20 21 22 22 22 22 22 23 22 22 22 22 22
13 13 13 13 14 16 16 16 16 17 17 17 18 19 19 19 20 20 19 18 18 17 18 18 19 19 20 19 19 19 18 17 18 19 21 23 22 22 21 22 21 20 20 22
12 12 12 12 13 14 15 15 16 17 17 17 18 19 19 21 21 20 19 19 20 19 19 19 19 19 19 18 17 17 16 16 17 18 19 20 20 20 20 21 21 20 19 19
12 11 12 12 12 13 13 14 15 15 16 18 18 19 19 20 21 21 20 20 20 19 19 19 19 18 17 17 16 16 16 16 16 17 17 18 19 19 19 20 19 19 19 19
11 12 12 12 12 13 13 13 13 14 16 17 18 19 19 20 21 22 21 20 20 19 18 18 18 17 16 15 15 16 16 16 16 16 17 18 18 18 18 18 19 19 19 19
11 11 13 13 12 12 12 13 12 13 14 16 17 19 19 20 21 21 21 20 20 18 17 16 15 14 14 14 14 15 16 16 16 17 17 17 17 18 19 18 19 19 20 20
13 13 13 12 11 11 12 11 11 12 13 15 17 18 19 20 21 21 20 19 18 17 16 15 13 12 12 12 13 13 14 14 15 15 15 16 17 18 18 18 17 18 19 19
11 11 10 9 9 10 9 11 11 11 13 15 17 19 19 20 20 20 20 19 18 16 14 13 12 12 11 11 11 12 13 13 14 14 15 15 16 16 16 17 17 17 18 19
11 10 8 8 8 9 10 10 11 13 14 16 17 18 19 19 20 19 18 17 16 14 13 12 11 10 10 10 10 11 12 12 12 13 14 15 15 16 16 17 17 17 17 18
11 11 9 7 8 9 9 11 12 13 14 16 17 18 18 18 18 17 16 15 14 12 10 9 9 8 8 9 10 10 10 10 11 11 12 12 13 14 15 15 15 15 16 17
11 9 8 8 8 9 9 10 12 13 15 16 17 17 17 17 16 15 14 13 12 10 8 7 6 6 7 7 8 8 9 10 9 9 10 11 12 12 13 13 14 14 14 13
11 8 6 7 7 7 8 10 12 14 15 16 16 16 16 15 14 13 13 12 10 8 7 6 5 6 6 6 7 8 8 8 9 9 10 11 10 11 11 11 11 12 12 11
9 7 5 4 4 5 8 10 11 13 14 15 16 16 15 14 13 12 12 10 9 6 5 4 4 4 4 4 5 6 7 7 6 7 8 9 9 10 10 10 10 10 10 10
8 5 4 2 3 6 8 10 11 12 14 15 15 15 14 13 12 11 10 8 6 4 3 2 2 3 3 3 5 5 5 6 5 6 6 7 7 7 7 7 8 8 8 8
7 5 3 2 3 6 8 10 11 12 13 14 15 15 15 14 12 11 9 7 5 4 3 2 1 0 1 2 3 4 4 4 4 4 5 5 6 6 6 6 7 6 6 6
6 4 2 1 4 6 8 9 10 12 13 13 14 15 14 13 11 10 9 7 6 5 4 4 3 3 3 3 3 3 2 3 3 3 3 3 3 4 4 4 4 4 4 5
Wind_Direction
217 216 215 214 213 218 225 232 234 236 249 256 262 270 273 273 273 272 269 269 270 270 272 272 270 269 269 268 266 266 265 263 257 256 250 246 247 246 246 246 246 244 241 241
211 208 209 212 217 223 231 238 242 240 247 255 258 263 266 268 271 271 270 268 271 272 275 276 273 271 268 268 267 267 263 260 257 254 251 249 248 249 248 248 250 247 243 242
207 203 207 211 218 231 242 250 250 244 245 252 259 260 266 268 270 270 270 271 273 274 274 276 275 273 270 268 268 267 264 260 258 252 250 250 250 252 252 250 248 244 243 242
205 204 209 214 224 235 248 256 255 253 256 258 262 266 265 267 269 271 271 272 273 275 277 277 276 274 271 268 268 266 265 263 261 256 251 250 252 254 254 254 251 246 247 243
205 207 213 220 227 237 248 254 255 260 266 267 267 272 272 270 269 271 272 272 273 275 277 278 276 273 270 268 268 265 265 263 262 259 253 249 253 255 253 253 254 248 247 247
208 213 219 224 230 240 252 258 260 266 269 270 270 273 275 274 274 273 273 275 275 276 275 273 273 274 269 266 265 266 263 263 261 258 253 250 252 255 255 253 252 250 250 249
204 212 223 237 246 245 254 262 266 267 272 275 279 279 281 282 284 282 278 279 280 278 277 277 274 274 268 264 264 263 263 263 261 255 252 251 251 252 254 251 251 249 252 252
205 210 225 242 253 251 258 266 273 279 281 283 285 288 291 291 293 293 286 283 284 281 278 277 273 274 268 265 263 261 263 263 260 256 252 251 251 252 252 251 248 247 250 249
212 218 233 245 255 258 264 272 279 280 285 288 291 292 295 299 301 300 297 290 288 286 279 277 274 274 270 265 264 264 263 262 260 255 253 252 251 250 248 246 245 245 248 246
223 229 240 252 259 261 267 273 275 278 284 288 293 297 304 304 307 307 306 301 294 291 286 277 273 274 274 270 268 266 261 260 257 254 250 248 249 248 247 243 242 242 244 246
231 242 248 255 262 265 266 271 275 281 288 293 299 301 307 310 310 311 309 306 300 298 292 282 281 278 275 272 269 265 259 259 256 251 249 248 248 249 247 242 241 238 241 244
235 244 249 256 263 268 263 268 274 279 287 293 299 305 308 311 313 315 312 308 306 302 297 289 282 278 275 272 267 261 260 259 254 252 249 248 249 249 246 243 245 243 242 242
237 247 254 261 265 269 263 270 280 284 289 293 297 303 307 310 311 313 312 310 310 305 301 294 284 278 273 269 264 258 256 254 252 253 250 248 246 244 243 240 241 245 247 246
242 255 263 270 269 266 266 275 283 286 291 294 297 302 306 310 311 311 311 311 311 306 302 295 286 277 270 265 262 258 255 253 253 253 248 244 243 242 241 238 239 243 245 247
249 260 270 274 272 270 272 279 288 291 297 301 303 305 308 309 312 311 310 310 310 306 300 293 284 274 266 261 258 255 254 252 249 248 246 242 239 238 236 236 237 240 243 245
252 264 268 271 267 268 277 283 287 295 300 304 307 306 307 307 310 312 312 311 311 308 301 294 285 272 264 259 254 253 253 248 244 240 239 235 233 234 232 234 238 240 241 245
255 263 264 265 267 277 281 290 295 298 303 306 306 309 310 310 311 312 313 311 309 309 302 298 287 273 264 258 253 249 248 245 241 237 236 234 232 232 232 234 236 239 242 246
250 258 267 264 269 280 287 287 294 302 306 308 308 310 313 313 313 312 311 309 308 307 301 296 286 270 263 258 253 247 244 242 240 238 236 235 234 233 234 234 239 244 245 246
241 253 263 261 273 287 297 303 307 309 310 312 312 313 314 314 312 311 309 306 305 304 297 288 284 274 264 253 246 239 237 236 236 235 235 234 235 236 236 238 240 242 246 246
241 244 251 266 280 293 303 306 310 315 317 318 317 318 318 317 315 312 310 307 306 302 297 288 281 271 254 244 241 237 231 226 226 230 229 230 231 233 232 233 237 241 246 247
234 236 250 267 281 296 309 317 321 324 325 324 323 323 323 321 318 316 313 312 310 306 299 290 277 257 250 250 243 235 226 222 221 226 226 229 230 231 234 238 242 244 246 247
231 241 255 275 284 297 312 323 329 329 329 330 330 330 329 327 324 322 319 316 313 307 298 286 267 249 244 245 240 229 227 223 223 225 225 226 228 232 236 240 243 243 244 248
221 230 241 276 296 301 317 330 335 334 335 337 338 337 337 335 331 329 328 323 319 312 300 280 262 250 242 231 221 215 217 217 221 222 220 220 225 227 230 234 236 237 242 251
217 220 230 271 308 321 331 338 340 341 342 345 347 348 349 348 346 343 340 340 344 342 322 285 261 246 238 225 215 207 210 212 215 218 219 221 218 218 222 227 234 239 245 252
216 225 246 281 319 331 340 346 348 349 351 352 354 357 359 359 360 358 357 3 16 24 25 30 32 32 205 187 186 191 202 206 207 212 215 217 219 226 231 238 242 247 253 261
203 213 241 304 327 341 349 354 357 358 359 359 0 4 7 11 13 12 13 17 26 36 45 53 66 83 105 130 145 167 189 185 183 188 195 202 205 215 228 237 244 254 265 273
Height
5801 5804 5805 5807 5808 5809 5810 5811 5812 5813 5813 5812 5812 5812 5813 5812 5811 5811 5810 5810 5809 5809 5809 5808 5808 5809 5809 5809 5810 5812 5813 5813 5814 5815 5816 5816 5817 5819 5820 5821 5823 5824 5825 5828
5799 5801 5802 5803 5805 5806 5807 5808 5808 5809 5809 5808 5808 5808 5807 5807 5806 5805 5805 5804 5803 5803 5801 5801 5801 5801 5802 5802 5802 5804 5805 5806 5807 5808 5809 5810 5811 5813 5814 5814 5815 5817 5820 5822
5795 5798 5798 5800 5801 5802 5803 5804 5804 5805 5804 5804 5803 5804 5802 5802 5800 5799 5799 5798 5797 5796 5795 5794 5794 5794 5795 5796 5796 5796 5797 5798 5798 5799 5801 5802 5804 5806 5808 5809 5810 5813 5815 5816
5792 5794 5795 5796 5797 5798 5799 5800 5800 5800 5800 5799 5799 5797 5798 5795 5794 5793 5793 5792 5791 5790 5789 5788 5788 5787 5788 5788 5789 5789 5790 5791 5792 5793 5794 5796 5799 5801 5802 5803 5805 5807 5809 5810
5789 5790 5791 5793 5794 5795 5795 5796 5796 5795 5795 5795 5794 5792 5792 5790 5789 5788 5786 5785 5785 5784 5783 5782 5781 5780 5780 5781 5781 5782 5782 5784 5785 5786 5788 5789 5792 5794 5796 5797 5799 5802 5804 5805
5786 5788 5788 5789 5790 5791 5792 5792 5792 5791 5791 5790 5789 5787 5786 5785 5783 5782 5781 5779 5778 5777 5776 5775 5774 5773 5773 5773 5774 5774 5774 5776 5778 5779 5781 5783 5785 5787 5790 5792 5794 5796 5798 5800
5784 5785 5786 5787 5787 5788 5788 5789 5788 5787 5786 5786 5784 5782 5782 5780 5778 5776 5775 5774 5772 5770 5769 5768 5767 5766 5765 5766 5767 5767 5768 5769 5771 5772 5774 5777 5779 5781 5784 5786 5788 5790 5792 5794
5781 5783 5784 5784 5784 5784 5785 5785 5785 5784 5782 5781 5780 5778 5778 5775 5772 5770 5768 5767 5766 5765 5764 5762 5761 5760 5759 5758 5760 5761 5761 5763 5764 5766 5768 5770 5772 5775 5777 5780 5782 5784 5786 5787
5779 5781 5781 5781 5780 5781 5781 5781 5781 5780 5778 5777 5775 5774 5772 5769 5767 5764 5763 5761 5760 5759 5757 5756 5754 5754 5753 5753 5753 5754 5755 5756 5757 5759 5761 5764 5766 5769 5771 5773 5776 5778 5781 5782
5776 5777 5778 5778 5778 5778 5778 5777 5777 5776 5774 5772 5771 5769 5768 5765 5762 5759 5758 5755 5754 5753 5751 5750 5749 5748 5747 5747 5747 5748 5748 5750 5751 5753 5755 5758 5760 5762 5765 5767 5770 5772 5775 5777
5772 5774 5775 5775 5774 5774 5774 5774 5773 5772 5770 5769 5766 5767 5764 5761 5758 5756 5753 5751 5749 5747 5745 5744 5743 5743 5742 5741 5741 5741 5742 5744 5745 5747 5749 5752 5754 5757 5759 5761 5764 5766 5768 5770
5770 5771 5771 5771 5771 5770 5770 5769 5769 5768 5767 5765 5763 5764 5759 5757 5754 5752 5749 5747 5745 5742 5740 5738 5737 5736 5736 5735 5735 5736 5737 5738 5739 5741 5743 5746 5748 5751 5753 5755 5758 5760 5762 5764
5767 5768 5768 5768 5769 5768 5766 5766 5765 5764 5763 5761 5759 5760 5755 5752 5749 5747 5744 5742 5740 5737 5735 5732 5730 5729 5728 5729 5729 5730 5731 5733 5734 5736 5738 5740 5742 5745 5747 5750 5752 5754 5756 5758
5764 5765 5766 5766 5764 5763 5763 5763 5761 5760 5758 5757 5755 5753 5751 5748 5744 5742 5739 5737 5734 5731 5729 5726 5725 5723 5723 5723 5723 5724 5726 5727 5729 5731 5732 5735 5737 5739 5741 5743 5746 5748 5751 5753
5761 5762 5762 5762 5761 5760 5760 5759 5758 5756 5754 5752 5751 5748 5746 5743 5740 5737 5734 5732 5729 5726 5724 5722 5719 5718 5718 5718 5719 5720 5721 5722 5724 5726 5728 5729 5731 5734 5736 5738 5740 5743 5745 5747
5758 5759 5759 5759 5758 5757 5756 5755 5754 5753 5750 5748 5746 5743 5741 5738 5735 5732 5729 5726 5723 5720 5718 5716 5714 5714 5713 5713 5714 5715 5716 5717 5719 5721 5723 5725 5727 5729 5731 5733 5735 5737 5739 5741
5755 5756 5756 5756 5755 5754 5754 5752 5751 5750 5747 5745 5742 5740 5736 5733 5730 5727 5724 5721 5718 5715 5713 5711 5710 5709 5709 5709 5710 5711 5712 5713 5714 5716 5718 5720 5722 5724 5726 5728 5730 5732 5733 5735
5752 5752 5752 5752 5753 5751 5752 5749 5748 5746 5744 5741 5738 5735 5731 5728 5725 5721 5718 5716 5713 5710 5708 5707 5705 5705 5705 5705 5706 5706 5707 5709 5710 5711 5713 5715 5717 5719 5721 5723 5725 5726 5728 5730
5748 5749 5749 5749 5748 5748 5748 5746 5744 5742 5740 5737 5734 5730 5727 5723 5720 5716 5713 5710 5708 5706 5704 5702 5701 5701 5701 5701 5702 5703 5704 5705 5706 5707 5709 5711 5713 5715 5717 5718 5720 5722 5723 5724
5745 5746 5747 5746 5745 5745 5746 5743 5740 5739 5736 5733 5730 5726 5722 5719 5716 5713 5709 5706 5703 5701 5700 5698 5698 5697 5697 5698 5698 5699 5700 5701 5703 5704 5706 5707 5709 5710 5712 5714 5715 5717 5718 5719
5742 5743 5743 5743 5743 5743 5742 5740 5738 5736 5734 5729 5726 5722 5718 5714 5711 5708 5704 5702 5699 5698 5696 5695 5695 5695 5695 5695 5696 5696 5697 5699 5700 5701 5703 5704 5706 5707 5708 5710 5711 5712 5713 5714
5739 5740 5741 5741 5740 5742 5739 5736 5735 5733 5729 5725 5722 5718 5714 5710 5707 5704 5701 5698 5696 5694 5693 5692 5692 5692 5693 5693 5693 5694 5695 5696 5697 5698 5700 5701 5703 5704 5705 5707 5708 5709 5709 5710
5737 5738 5739 5739 5740 5738 5736 5734 5732 5729 5726 5722 5718 5714 5711 5707 5704 5701 5698 5695 5693 5692 5691 5690 5690 5690 5690 5691 5691 5692 5693 5694 5695 5696 5697 5699 5700 5701 5702 5703 5704 5705 5706 5707
5735 5736 5736 5736 5736 5735 5734 5731 5729 5726 5723 5720 5716 5712 5708 5705 5701 5698 5696 5693 5691 5690 5689 5688 5688 5688 5689 5689 5690 5690 5691 5692 5693 5694 5695 5696 5697 5698 5700 5701 5702 5702 5703 5703
5733 5734 5734 5734 5734 5733 5731 5729 5727 5724 5721 5718 5714 5710 5707 5703 5700 5697 5695 5693 5691 5689 5688 5688 5687 5687 5687 5688 5688 5689 5690 5691 5692 5693 5694 5694 5695 5696 5697 5698 5699 5700 5700 5701
5731 5733 5733 5733 5733 5731 5730 5728 5725 5723 5720 5716 5713 5709 5706 5702 5700 5697 5695 5692 5691 5689 5688 5688 5687 5687 5687 5687 5688 5689 5689 5690 5691 5691 5692 5693 5694 5695 5696 5696 5697 5697 5698 5698